Time,TemperatureF,DewpointF,PressureIn,WindDirection,WindDirectionDegrees,WindSpeedMPH,WindSpeedGustMPH,Humidity,HourlyPrecipIn,Conditions,Clouds,dailyrainin,SolarRadiationWatts/m^2,SoftwareType,DateUTC
2013-10-31 00:00:00,52.0,51.0,-100.00,South,180,5.0,-999.0,95,-99.99,,,-99.99,0.000000,,2013-10-31 05:00:00,
2013-10-31 00:43:00,52.0,51.0,-100.00,South,180,5.0,-999.0,95,-99.99,,,-99.99,0.000000,,2013-10-31 05:43:00,
2013-10-31 00:52:00,52.0,51.0,-100.00,South,180,5.0,-999.0,95,-99.99,,,-99.99,0.000000,,2013-10-31 05:52:00,
2013-10-31 01:00:00,52.0,50.0,-100.00,SW,225,4.0,-999.0,95,-99.99,,,-99.99,0.000000,,2013-10-31 06:00:00,
2013-10-31 01:42:00,52.0,50.0,-100.00,SW,225,4.0,-999.0,95,-99.99,,,-99.99,0.000000,,2013-10-31 06:42:00,
2013-10-31 01:53:00,52.0,50.0,-100.00,SW,225,4.0,-999.0,95,-99.99,,,-99.99,0.000000,,2013-10-31 06:53:00,
2013-10-31 02:00:00,52.0,51.0,-100.00,SSW,202,3.0,-999.0,95,0.05,,,-99.99,0.000000,,2013-10-31 07:00:00,
2013-10-31 02:42:00,52.0,51.0,-100.00,SSW,202,3.0,-999.0,95,0.05,,,-99.99,0.000000,,2013-10-31 07:42:00,
2013-10-31 02:52:00,52.0,51.0,-100.00,SSW,202,3.0,-999.0,95,0.05,,,-99.99,0.000000,,2013-10-31 07:52:00,
2013-10-31 03:00:00,52.0,50.0,-100.00,South,180,1.0,-999.0,95,-99.99,,,-99.99,0.000000,,2013-10-31 08:00:00,
2013-10-31 03:42:00,52.0,50.0,-100.00,South,180,1.0,-999.0,95,-99.99,,,-99.99,0.000000,,2013-10-31 08:42:00,
2013-10-31 03:52:00,52.0,50.0,-100.00,South,180,1.0,-999.0,95,-99.99,,,-99.99,0.000000,,2013-10-31 08:52:00,
2013-10-31 04:00:00,52.0,50.0,-100.00,SE,135,0.0,-999.0,95,0.01,,,-99.99,0.000000,,2013-10-31 09:00:00,
2013-10-31 04:43:00,52.0,50.0,-100.00,SE,135,0.0,-999.0,95,0.01,,,-99.99,0.000000,,2013-10-31 09:43:00,
2013-10-31 04:53:00,52.0,50.0,-100.00,SE,135,0.0,-999.0,95,0.01,,,-99.99,0.000000,,2013-10-31 09:53:00,
2013-10-31 05:00:00,51.0,50.0,-100.00,SE,135,2.0,-999.0,95,-99.99,,,-99.99,0.000000,,2013-10-31 10:00:00,
2013-10-31 05:42:00,51.0,50.0,-100.00,SE,135,2.0,-999.0,95,-99.99,,,-99.99,0.000000,,2013-10-31 10:42:00,
2013-10-31 05:53:00,51.0,50.0,-100.00,SE,135,2.0,-999.0,95,-99.99,,,-99.99,0.000000,,2013-10-31 10:53:00,
2013-10-31 06:00:00,51.0,50.0,-100.00,SSE,157,2.0,-999.0,95,0.13,,,-99.99,0.000000,,2013-10-31 11:00:00,
2013-10-31 06:42:00,51.0,50.0,-100.00,SSE,157,2.0,-999.0,95,0.13,,,-99.99,0.000000,,2013-10-31 11:42:00,
2013-10-31 06:52:00,51.0,50.0,-100.00,SSE,157,2.0,-999.0,95,0.13,,,-99.99,0.000000,,2013-10-31 11:52:00,
2013-10-31 07:00:00,51.0,50.0,-100.00,SE,135,2.0,-999.0,95,0.04,,,-99.99,0.000000,,2013-10-31 12:00:00,
2013-10-31 07:42:00,51.0,50.0,-100.00,SE,135,2.0,-999.0,95,0.04,,,-99.99,0.000000,,2013-10-31 12:42:00,
2013-10-31 07:52:00,51.0,50.0,-100.00,SE,135,2.0,-999.0,95,0.04,,,-99.99,0.000000,,2013-10-31 12:52:00,
2013-10-31 08:00:00,51.0,50.0,-100.00,SE,135,1.0,-999.0,95,0.04,,,-99.99,1.160000,,2013-10-31 13:00:00,
2013-10-31 08:42:00,51.0,50.0,-100.00,SE,135,1.0,-999.0,95,0.04,,,-99.99,1.160000,,2013-10-31 13:42:00,
2013-10-31 08:52:00,51.0,50.0,-100.00,SE,135,1.0,-999.0,95,0.04,,,-99.99,1.160000,,2013-10-31 13:52:00,
2013-10-31 09:00:00,52.0,51.0,-100.00,SSE,157,2.0,-999.0,96,0.01,,,-99.99,13.920000,,2013-10-31 14:00:00,
2013-10-31 09:42:00,52.0,51.0,-100.00,SSE,157,2.0,-999.0,96,0.01,,,-99.99,13.920000,,2013-10-31 14:42:00,
2013-10-31 09:52:00,52.0,51.0,-100.00,SSE,157,2.0,-999.0,96,0.01,,,-99.99,13.920000,,2013-10-31 14:52:00,
2013-10-31 11:00:00,54.0,53.0,-100.00,SE,135,2.0,-999.0,96,-99.99,,,-99.99,67.279999,,2013-10-31 16:00:00,
2013-10-31 11:43:00,54.0,53.0,-100.00,SE,135,2.0,-999.0,96,-99.99,,,-99.99,67.279999,,2013-10-31 16:43:00,
2013-10-31 11:53:00,54.0,53.0,-100.00,SE,135,2.0,-999.0,96,-99.99,,,-99.99,67.279999,,2013-10-31 16:53:00,
2013-10-31 12:00:00,53.0,52.0,-100.00,ESE,112,2.0,-999.0,96,0.01,,,-99.99,78.879997,,2013-10-31 17:00:00,
2013-10-31 12:43:00,53.0,52.0,-100.00,ESE,112,2.0,-999.0,96,0.01,,,-99.99,78.879997,,2013-10-31 17:43:00,
2013-10-31 12:52:00,53.0,52.0,-100.00,ESE,112,2.0,-999.0,96,0.01,,,-99.99,78.879997,,2013-10-31 17:52:00,
2013-10-31 13:00:00,54.0,53.0,-100.00,South,180,1.0,-999.0,96,-99.99,,,-99.99,81.199997,,2013-10-31 18:00:00,
2013-10-31 13:42:00,54.0,53.0,-100.00,South,180,1.0,-999.0,96,-99.99,,,-99.99,81.199997,,2013-10-31 18:42:00,
2013-10-31 13:52:00,54.0,53.0,-100.00,South,180,1.0,-999.0,96,-99.99,,,-99.99,81.199997,,2013-10-31 18:52:00,
2013-10-31 14:00:00,54.0,53.0,-100.00,SW,225,0.0,-999.0,96,-99.99,,,-99.99,56.840000,,2013-10-31 19:00:00,
2013-10-31 14:42:00,54.0,53.0,-100.00,SW,225,0.0,-999.0,96,-99.99,,,-99.99,56.840000,,2013-10-31 19:42:00,
2013-10-31 14:52:00,54.0,53.0,-100.00,SW,225,0.0,-999.0,96,-99.99,,,-99.99,56.840000,,2013-10-31 19:52:00,
2013-10-31 15:00:00,55.0,54.0,-100.00,ENE,67,1.0,-999.0,96,-99.99,,,-99.99,52.200001,,2013-10-31 20:00:00,
2013-10-31 15:42:00,55.0,54.0,-100.00,ENE,67,1.0,-999.0,96,-99.99,,,-99.99,52.200001,,2013-10-31 20:42:00,
2013-10-31 15:52:00,55.0,54.0,-100.00,ENE,67,1.0,-999.0,96,-99.99,,,-99.99,52.200001,,2013-10-31 20:52:00,
2013-10-31 17:00:00,54.0,53.0,-100.00,WNW,292,1.0,-999.0,96,0.07,,,-99.99,11.600000,,2013-10-31 22:00:00,
2013-10-31 17:43:00,54.0,53.0,-100.00,WNW,292,1.0,-999.0,96,0.07,,,-99.99,11.600000,,2013-10-31 22:43:00,
2013-10-31 17:53:00,54.0,53.0,-100.00,WNW,292,1.0,-999.0,96,0.07,,,-99.99,11.600000,,2013-10-31 22:53:00,
2013-10-31 18:00:00,53.0,52.0,-100.00,WNW,292,2.0,-999.0,96,0.06,,,-99.99,2.320000,,2013-10-31 23:00:00,
2013-10-31 18:43:00,53.0,52.0,-100.00,WNW,292,2.0,-999.0,96,0.06,,,-99.99,2.320000,,2013-10-31 23:43:00,
2013-10-31 18:54:00,53.0,52.0,-100.00,WNW,292,2.0,-999.0,96,0.06,,,-99.99,2.320000,,2013-10-31 23:54:00,
2013-10-31 19:00:00,52.0,51.0,-100.00,NW,315,4.0,-999.0,96,0.09,,,-99.99,0.000000,,2013-11-01 00:00:00,
2013-10-31 19:42:00,52.0,51.0,-100.00,NW,315,4.0,-999.0,96,0.09,,,-99.99,0.000000,,2013-11-01 00:42:00,
2013-10-31 19:52:00,52.0,51.0,-100.00,NW,315,4.0,-999.0,96,0.09,,,-99.99,0.000000,,2013-11-01 00:52:00,
2013-10-31 20:00:00,52.0,51.0,-100.00,WNW,292,5.0,-999.0,96,0.05,,,-99.99,0.000000,,2013-11-01 01:00:00,
2013-10-31 20:42:00,52.0,51.0,-100.00,WNW,292,5.0,-999.0,96,0.05,,,-99.99,0.000000,,2013-11-01 01:42:00,
2013-10-31 20:52:00,52.0,51.0,-100.00,WNW,292,5.0,-999.0,96,0.05,,,-99.99,0.000000,,2013-11-01 01:52:00,
2013-10-31 21:00:00,52.0,51.0,-100.00,NW,315,8.0,-999.0,96,0.05,,,-99.99,0.000000,,2013-11-01 02:00:00,
2013-10-31 21:42:00,52.0,51.0,-100.00,NW,315,8.0,-999.0,96,0.05,,,-99.99,0.000000,,2013-11-01 02:42:00,
2013-10-31 21:52:00,52.0,51.0,-100.00,NW,315,8.0,-999.0,96,0.05,,,-99.99,0.000000,,2013-11-01 02:52:00,
2013-10-31 22:00:00,52.0,51.0,-100.00,WNW,292,8.0,-999.0,96,0.03,,,-99.99,0.000000,,2013-11-01 03:00:00,
2013-10-31 22:45:00,52.0,51.0,-100.00,WNW,292,8.0,-999.0,96,0.03,,,-99.99,0.000000,,2013-11-01 03:45:00,
2013-10-31 22:54:00,52.0,51.0,-100.00,WNW,292,8.0,-999.0,96,0.03,,,-99.99,0.000000,,2013-11-01 03:54:00,
2013-10-31 23:00:00,52.0,51.0,-100.00,NW,315,9.0,-999.0,96,-99.99,,,-99.99,0.000000,,2013-11-01 04:00:00,
2013-10-31 23:44:00,52.0,51.0,-100.00,NW,315,9.0,-999.0,96,-99.99,,,-99.99,0.000000,,2013-11-01 04:44:00,
2013-10-31 23:54:00,52.0,51.0,-100.00,NW,315,9.0,-999.0,96,-99.99,,,-99.99,0.000000,,2013-11-01 04:54:00,